Wind_Speed
62 66 67 65 62 60 59 58 56 54 53 52 51 48 46 43 41 39 36 34 32 31 30 29 28 27 28 29 28 27 27 28 30 32 35 35 37 36 35 34 34 33 32 31 26 23 30
63 66 67 66 65 62 62 59 59 56 55 54 52 50 48 46 45 43 40 39 38 36 34 33 30 29 29 29 29 30 32 32 33 35 36 38 38 37 36 37 36 35 32 29 23 20 7
62 63 67 68 68 67 63 61 60 59 58 57 54 54 51 49 48 47 43 42 41 39 38 36 33 32 33 34 34 34 35 35 35 36 37 38 38 37 37 36 35 33 33 29 22 14 9
61 62 66 68 69 69 68 65 62 60 58 59 57 54 52 52 49 49 47 47 45 43 42 40 38 36 37 37 38 38 38 38 38 37 38 38 37 36 36 36 34 32 32 29 23 13 6
63 61 64 67 69 69 69 68 65 62 59 59 59 58 57 55 54 51 50 48 47 46 44 43 42 41 40 40 41 40 40 41 42 40 38 38 35 37 36 34 33 34 32 29 26 21 16
68 64 62 66 69 70 69 69 67 66 64 61 60 60 58 57 56 55 54 53 51 49 48 47 44 45 44 43 43 43 43 44 44 40 39 36 34 36 36 34 35 35 32 30 28 25 22
72 68 64 63 67 70 70 70 67 66 66 65 62 61 61 61 59 58 58 56 55 53 53 52 49 48 48 47 47 46 46 47 45 41 37 36 38 38 38 37 36 35 34 31 26 25 23
72 71 68 65 64 68 70 70 70 68 67 68 65 63 63 62 62 60 60 60 57 56 55 55 54 53 52 50 49 48 48 47 43 40 38 38 40 39 40 38 36 35 34 30 27 25 23
70 71 70 68 65 65 68 70 71 71 67 67 66 64 64 63 62 61 60 59 56 56 57 54 53 53 52 51 49 49 48 44 40 40 41 43 41 41 40 39 37 36 33 29 27 24 24
70 71 71 70 68 65 65 67 70 69 69 68 66 66 64 65 62 60 59 59 60 58 56 55 55 54 51 49 50 47 46 42 42 42 44 45 42 42 41 38 38 37 32 30 27 26 25
70 70 70 71 71 70 67 66 66 68 68 68 66 66 64 62 62 61 61 60 60 58 56 57 57 56 56 52 52 50 48 46 46 47 47 45 43 42 41 38 39 37 34 32 28 26 27
71 70 70 70 70 70 70 69 67 66 65 66 66 65 64 64 64 62 61 59 58 58 54 58 55 54 53 52 52 53 51 51 51 50 47 45 45 44 41 40 39 38 34 32 30 27 27
71 72 71 70 70 70 70 69 68 67 66 65 66 65 64 63 62 61 60 59 58 57 55 57 56 54 53 52 50 50 50 50 50 49 48 47 47 44 42 42 39 37 35 34 31 29 29
73 72 72 71 70 69 69 70 69 68 67 65 66 65 63 63 62 60 58 58 58 56 55 54 54 55 52 51 50 50 50 50 50 48 48 47 46 44 43 44 41 39 37 35 33 32 31
77 75 72 72 71 70 69 69 69 69 67 67 66 65 64 63 62 61 59 58 57 51 54 54 53 52 53 51 52 52 51 50 49 48 49 49 48 43 44 45 43 42 38 37 34 34 33
75 78 76 73 73 71 70 69 68 68 68 67 65 66 65 63 62 60 59 59 56 54 55 53 53 53 54 54 54 52 51 50 50 48 50 51 50 47 42 41 45 43 39 38 38 37 36
74 76 79 79 75 73 72 70 68 67 66 65 66 64 63 61 60 58 59 60 55 54 55 55 54 53 53 54 49 52 51 49 48 48 50 51 50 51 48 41 48 43 44 41 40 40 40
75 76 77 79 80 76 73 72 69 67 66 64 64 62 61 58 57 57 57 57 51 55 53 53 53 53 51 52 49 50 52 48 45 50 49 50 49 52 51 44 44 45 44 41 41 43 43
71 76 77 78 78 81 76 73 71 69 66 65 64 58 58 56 57 58 57 53 52 52 51 50 50 51 49 50 52 51 55 46 45 49 46 48 49 49 48 48 45 37 40 41 42 44 44
58 70 77 78 78 78 79 77 72 69 68 65 61 58 60 58 56 54 55 51 51 51 49 49 51 49 50 49 51 50 51 47 44 46 46 46 47 47 46 51 47 44 38 41 47 46 47
42 56 69 76 77 76 75 76 77 71 68 65 65 63 57 56 57 55 53 50 51 50 49 46 48 47 47 47 49 48 46 48 45 41 48 48 46 49 47 50 52 49 44 45 47 52 52
26 39 52 65 73 74 73 72 73 75 72 68 63 58 57 58 53 53 51 51 50 47 45 46 45 44 45 46 44 47 47 49 49 46 47 54 52 51 51 53 54 55 53 52 53 52 55
15 25 36 48 61 69 71 70 70 70 73 69 63 61 58 56 56 55 53 50 47 47 42 48 42 46 47 43 47 49 48 50 51 51 53 54 55 54 53 54 54 55 60 58 56 55 57
7 14 24 34 46 57 66 69 67 66 66 69 69 64 61 58 56 54 51 49 48 45 45 45 44 47 48 45 52 49 51 53 54 54 55 56 56 57 55 55 51 55 53 54 52 52 56
4 8 16 25 34 44 55 63 64 63 62 62 65 67 63 60 57 54 51 50 47 46 47 46 48 49 51 51 53 52 54 55 56 56 56 55 53 49 47 45 42 44 46 44 40 38 43
1 7 12 19 26 35 45 54 59 60 58 56 58 60 63 61 57 55 54 51 50 49 50 49 48 52 51 52 54 54 57 58 55 53 51 51 47 43 41 39 40 44 44 41 38 34 41
1 7 12 16 22 28 36 44 52 54 53 52 50 52 56 58 57 56 52 52 48 48 48 45 49 51 51 55 56 55 53 52 50 48 48 48 45 43 41 41 43 45 44 46 42 43 39
1 5 11 15 20 25 31 38 45 47 47 45 43 43 45 45 46 45 42 42 43 43 45 43 50 47 50 49 48 49 48 50 49 48 48 48 48 48 47 46 47 46 47 52 51 50 41
5 6 10 15 18 21 26 31 37 42 43 42 41 40 39 39 40 38 39 39 40 42 43 42 41 40 41 45 46 49 50 51 52 52 52 51 51 50 50 50 53 51 53 54 51 51 49
Wind_Direction
209 209 208 209 210 212 214 214 214 216 215 215 213 216 217 214 217 217 222 226 227 231 237 241 247 254 261 268 278 287 293 296 301 305 313 314 320 325 328 330 336 341 346 354 9 15 25
210 210 211 211 212 213 214 215 216 218 219 218 219 219 220 219 222 223 225 229 232 234 238 244 250 257 263 269 278 284 288 292 298 306 309 313 318 321 324 326 331 335 343 350 6 11 16
213 213 212 213 213 214 215 216 218 219 221 222 221 221 223 223 225 227 230 232 235 239 241 245 252 260 265 268 273 280 284 290 296 300 306 311 316 319 318 321 328 334 337 345 356 16 104
215 216 215 215 215 217 217 217 219 220 222 223 224 223 224 226 230 232 232 235 238 241 243 248 256 261 264 270 274 280 285 289 293 297 304 309 312 314 318 323 329 332 334 337 343 348 341
217 217 217 217 218 217 219 220 221 222 223 225 225 227 228 229 231 234 234 238 241 242 247 252 257 261 266 272 277 280 283 288 293 298 301 306 308 313 319 325 327 328 330 332 333 326 319
220 219 218 218 218 218 219 221 223 224 225 226 227 228 231 233 234 236 238 239 241 244 249 252 256 262 266 273 277 280 283 288 293 295 299 301 307 312 315 318 321 324 326 327 329 324 321
221 220 220 220 218 219 220 222 223 226 227 227 229 230 230 233 236 238 239 241 244 248 251 252 256 261 265 271 276 280 282 287 290 293 294 299 305 308 314 313 316 320 322 323 323 316 316
220 220 221 220 220 220 220 223 224 227 228 229 229 231 232 234 236 239 241 242 244 247 251 254 258 261 265 269 272 276 278 284 288 290 292 296 305 308 309 310 313 315 316 316 318 310 311
220 221 222 222 222 221 222 224 225 227 228 230 231 232 233 235 236 239 241 243 245 248 250 254 257 260 262 266 271 273 277 280 283 287 291 296 301 304 305 307 308 309 313 311 310 305 304
221 222 223 223 224 224 224 224 226 228 230 231 232 234 236 237 239 241 244 244 245 247 250 253 256 258 261 264 268 273 275 277 282 284 290 295 297 299 301 304 304 305 306 306 302 297 295
221 222 223 224 225 226 226 226 227 228 230 232 234 235 237 239 241 242 244 246 249 251 253 256 258 261 262 263 267 270 274 275 279 283 287 291 295 294 297 299 299 301 301 301 296 291 290
221 222 223 223 224 225 226 226 228 229 230 232 233 236 237 239 241 243 246 248 250 252 254 257 260 262 264 265 267 269 271 274 277 281 284 288 290 291 295 294 295 295 296 293 291 287 284
220 221 223 223 224 224 225 225 227 229 230 232 233 237 238 239 242 245 248 249 252 254 254 257 260 264 266 268 269 270 273 275 278 281 283 285 286 289 290 290 290 289 289 287 285 280 278
221 221 222 223 224 225 224 226 226 228 231 232 234 236 238 240 243 246 248 250 253 255 255 257 259 263 266 268 270 272 273 275 277 280 281 281 283 286 286 284 286 283 281 279 277 277 275
221 222 222 223 224 225 226 226 227 229 230 231 234 237 238 241 243 246 248 250 252 255 257 257 259 262 267 269 270 271 272 274 276 278 279 280 279 279 278 282 282 277 275 277 275 271 269
221 221 222 222 223 224 225 226 227 228 230 231 233 235 238 241 244 245 247 250 252 255 257 259 260 263 265 266 269 270 271 273 275 276 277 278 280 279 277 276 274 275 276 273 273 270 269
221 222 222 222 222 223 224 226 227 228 229 230 231 234 237 239 241 244 246 249 253 256 257 260 261 262 265 267 267 271 271 271 274 277 276 278 280 280 279 271 273 272 270 270 270 268 267
222 222 222 223 223 223 224 225 226 228 229 231 233 233 236 238 240 243 246 250 253 254 258 259 262 263 264 267 269 268 271 273 275 274 274 278 279 275 278 276 270 270 270 270 267 266 264
222 222 223 223 224 225 224 224 226 227 228 230 232 233 235 237 239 241 245 249 250 254 256 258 261 263 265 267 269 271 272 274 273 273 276 273 271 276 277 275 273 271 270 269 266 265 266
222 223 223 223 223 223 224 225 225 226 228 229 231 230 233 235 238 241 243 246 248 252 254 258 261 264 266 268 269 270 273 274 272 273 272 271 274 274 275 278 278 276 264 263 267 264 262
222 222 223 223 223 222 223 224 225 225 226 228 229 231 234 237 239 241 245 246 250 251 254 256 259 263 265 266 267 270 273 275 272 270 276 273 272 273 275 275 275 273 272 266 262 266 267
224 222 222 223 223 222 221 222 223 225 226 227 229 232 233 235 238 239 240 243 248 252 253 256 258 262 264 265 271 273 270 273 277 273 268 273 275 275 274 272 274 278 276 269 264 261 261
228 221 219 219 220 220 218 219 220 223 225 226 227 229 232 234 236 239 242 245 248 251 252 257 260 264 264 270 268 270 274 274 274 275 275 275 278 278 279 277 276 274 270 272 272 270 266
229 220 212 211 213 216 215 215 217 219 222 224 226 229 231 232 234 238 242 245 247 252 255 258 261 262 267 268 269 273 273 274 277 277 279 281 280 281 280 279 278 275 275 272 271 267 264
237 207 201 201 203 207 210 212 213 215 219 222 226 227 230 233 237 239 243 246 250 253 257 260 262 267 268 268 271 273 274 276 279 281 281 281 280 279 278 279 276 276 274 274 274 273 268
254 195 189 191 194 198 203 206 209 212 216 220 225 228 230 234 237 241 244 249 254 256 257 261 265 266 269 271 272 274 276 277 280 281 279 279 279 278 275 273 272 271 272 271 269 268 266
303 182 182 182 185 191 197 202 205 209 214 219 224 228 231 235 239 244 249 252 255 256 258 259 264 266 271 271 273 274 275 277 276 277 277 278 278 276 271 271 271 270 277 277 273 265 271
203 180 178 178 183 187 193 198 202 206 211 216 222 227 230 233 237 241 244 247 249 252 258 262 266 270 268 273 272 275 275 275 277 278 276 277 278 277 276 274 270 273 271 273 276 276 272
183 168 173 177 179 183 189 196 201 206 211 216 221 225 228 232 237 240 244 248 252 257 262 265 269 268 271 273 275 275 276 276 276 275 276 276 275 274 276 276 276 273 274 275 273 275 273
Height
10905 10913 10920 10928 10937 10944 10951 10958 10965 10971 10977 10983 10989 10995 11001 11005 11010 11013 11016 11020 11022 11025 11027 11029 11031 11032 11033 11033 11034 11033 11032 11032 11031 11030 11029 11027 11026 11026 11024 11022 11020 11021 11020 11018 11013 11002 10993
10898 10906 10914 10923 10931 10938 10945 10953 10960 10966 10972 10978 10984 10990 10995 11001 11005 11009 11012 11015 11019 11021 11023 11025 11027 11029 11030 11030 11031 11030 11029 11029 11029 11027 11026 11024 11022 11022 11020 11018 11017 11017 11016 11016 11016 11007 10996
10891 10899 10907 10915 10923 10931 10939 10947 10953 10960 10966 10972 10978 10984 10990 10995 11000 11004 11008 11011 11014 11017 11019 11022 11024 11025 11026 11027 11027 11026 11026 11027 11027 11025 11024 11022 11020 11019 11017 11016 11014 11012 11010 11011 11013 11010 11005
10883 10891 10899 10907 10915 10924 10931 10939 10946 10954 10961 10967 10973 10979 10984 10989 10994 10998 11003 11006 11009 11012 11014 11017 11020 11021 11022 11022 11023 11023 11022 11023 11023 11023 11022 11020 11017 11016 11014 11012 11010 11009 11007 11005 11007 11009 11006
10874 10882 10890 10898 10907 10915 10924 10932 10939 10946 10953 10959 10966 10973 10978 10983 10987 10992 10996 11000 11004 11007 11010 11012 11015 11016 11018 11018 11018 11018 11018 11018 11018 11019 11019 11017 11014 11012 11011 11009 11007 11005 11004 11002 11001 11002 11002
10865 10874 10881 10889 10898 10907 10915 10923 10930 10938 10945 10952 10959 10965 10971 10976 10981 10986 10991 10994 10998 11002 11004 11006 11009 11011 11013 11012 11012 11012 11013 11012 11013 11015 11015 11014 11012 11009 11008 11006 11003 11002 11001 10998 10995 10995 10993
10855 10864 10873 10881 10889 10897 10906 10914 10922 10929 10937 10944 10951 10958 10963 10969 10974 10979 10983 10987 10992 10996 10998 11001 11004 11006 11007 11006 11007 11007 11008 11008 11008 11009 11010 11008 11008 11006 11004 11001 10999 10998 10995 10994 10993 10990 10989
10844 10854 10864 10872 10880 10888 10897 10905 10913 10921 10928 10935 10943 10949 10955 10961 10966 10971 10976 10980 10985 10988 10992 10995 10997 10999 11000 11000 11001 11002 11003 11004 11003 11003 11003 11004 11003 11000 10998 10996 10995 10994 10993 10990 10990 10987 10986
10834 10844 10853 10863 10871 10879 10888 10896 10903 10911 10919 10927 10934 10940 10947 10952 10957 10962 10968 10972 10977 10980 10984 10987 10989 10990 10992 10994 10995 10997 10998 10999 10999 10998 10997 10996 10998 10994 10993 10992 10990 10989 10987 10986 10984 10982 10981
10823 10833 10843 10853 10862 10870 10878 10887 10894 10902 10910 10917 10925 10932 10938 10943 10949 10954 10958 10963 10968 10972 10976 10979 10980 10981 10985 10988 10987 10991 10991 10993 10993 10993 10992 10990 10991 10989 10987 10986 10984 10983 10982 10981 10980 10977 10975
10812 10822 10832 10842 10851 10860 10869 10878 10885 10893 10900 10907 10915 10922 10929 10935 10940 10945 10950 10954 10958 10964 10970 10968 10971 10974 10976 10981 10980 10982 10984 10985 10986 10985 10986 10985 10983 10982 10982 10981 10978 10977 10976 10975 10974 10973 10971
10802 10811 10820 10830 10840 10849 10859 10868 10876 10883 10890 10898 10905 10912 10918 10924 10930 10936 10941 10945 10950 10954 10962 10957 10961 10964 10968 10971 10973 10973 10976 10976 10977 10977 10977 10977 10976 10974 10974 10973 10972 10969 10969 10968 10968 10968 10966
10791 10800 10809 10819 10829 10839 10848 10856 10865 10873 10881 10888 10895 10902 10908 10915 10921 10926 10931 10935 10940 10943 10948 10951 10952 10954 10958 10960 10963 10965 10965 10966 10967 10967 10968 10968 10966 10967 10966 10964 10964 10962 10961 10961 10961 10962 10960
10780 10789 10798 10807 10817 10827 10837 10846 10855 10863 10871 10879 10885 10892 10899 10905 10911 10917 10921 10926 10929 10934 10938 10941 10944 10945 10948 10950 10953 10955 10956 10956 10957 10957 10956 10957 10957 10958 10957 10954 10956 10954 10953 10953 10953 10954 10955
10767 10777 10787 10797 10805 10815 10825 10834 10843 10852 10860 10868 10875 10882 10889 10896 10901 10907 10912 10915 10918 10927 10927 10930 10934 10937 10937 10941 10941 10943 10945 10946 10947 10947 10945 10945 10946 10949 10948 10946 10945 10944 10944 10944 10945 10945 10946
10753 10763 10774 10784 10794 10803 10812 10822 10831 10840 10849 10857 10864 10872 10879 10886 10892 10898 10903 10904 10911 10916 10915 10920 10923 10926 10927 10930 10930 10933 10933 10935 10935 10937 10934 10932 10934 10936 10940 10938 10934 10934 10936 10936 10936 10936 10937
10739 10749 10760 10770 10781 10791 10801 10810 10820 10828 10837 10846 10852 10860 10868 10875 10882 10888 10890 10893 10902 10905 10906 10909 10912 10915 10915 10916 10922 10918 10921 10924 10926 10926 10922 10921 10923 10922 10924 10930 10924 10928 10925 10927 10927 10928 10928
10723 10734 10746 10756 10768 10779 10789 10799 10809 10818 10826 10834 10842 10850 10857 10865 10872 10876 10879 10884 10894 10893 10896 10899 10901 10902 10906 10905 10908 10909 10907 10913 10918 10910 10914 10912 10912 10908 10910 10915 10915 10914 10916 10919 10918 10917 10917
10709 10719 10730 10742 10753 10765 10777 10787 10798 10807 10816 10823 10829 10843 10846 10854 10858 10863 10869 10877 10880 10883 10885 10889 10890 10891 10894 10894 10895 10897 10893 10905 10904 10899 10905 10900 10898 10898 10898 10898 10901 10909 10908 10907 10907 10907 10908
10695 10704 10714 10726 10738 10750 10763 10775 10787 10796 10805 10814 10824 10832 10833 10841 10848 10854 10857 10866 10869 10872 10875 10878 10879 10882 10882 10884 10884 10886 10884 10889 10893 10888 10890 10888 10886 10887 10889 10884 10889 10892 10898 10897 10893 10895 10895
10684 10690 10699 10710 10723 10736 10749 10762 10775 10785 10794 10803 10809 10816 10828 10835 10838 10844 10851 10856 10858 10861 10864 10869 10868 10872 10872 10874 10872 10875 10876 10874 10878 10881 10875 10874 10877 10874 10878 10876 10872 10876 10882 10884 10883 10881 10881
10676 10680 10686 10696 10708 10722 10737 10749 10761 10773 10783 10791 10802 10814 10821 10823 10831 10834 10840 10844 10848 10852 10857 10857 10860 10862 10862 10862 10865 10863 10864 10863 10863 10866 10867 10860 10863 10864 10865 10863 10861 10861 10863 10864 10866 10869 10869
10672 10673 10677 10684 10694 10708 10722 10736 10749 10760 10772 10784 10794 10801 10808 10815 10820 10824 10829 10836 10840 10842 10849 10844 10853 10849 10850 10856 10851 10851 10852 10851 10849 10851 10850 10850 10848 10849 10850 10848 10849 10849 10841 10845 10849 10853 10853
10669 10670 10672 10676 10685 10696 10710 10724 10737 10750 10761 10770 10781 10790 10798 10804 10809 10815 10822 10827 10830 10835 10836 10838 10841 10840 10839 10844 10837 10841 10839 10838 10836 10836 10836 10835 10834 10833 10833 10832 10833 10827 10828 10827 10831 10833 10832
10670 10670 10671 10674 10680 10689 10700 10714 10728 10740 10752 10761 10770 10780 10787 10794 10801 10807 10812 10817 10821 10825 10825 10829 10829 10829 10828 10829 10827 10827 10826 10826 10824 10824 10822 10820 10819 10820 10818 10817 10816 10812 10812 10814 10816 10817 10815
10672 10671 10672 10675 10679 10686 10696 10707 10720 10732 10743 10753 10761 10770 10778 10785 10793 10798 10801 10807 10811 10814 10815 10817 10819 10815 10816 10815 10814 10815 10812 10811 10813 10810 10808 10805 10806 10808 10805 10806 10804 10798 10799 10801 10803 10807 10800
10675 10674 10675 10677 10680 10686 10694 10703 10714 10726 10737 10746 10754 10762 10769 10776 10783 10787 10794 10796 10802 10801 10803 10808 10804 10804 10804 10802 10802 10801 10800 10797 10797 10797 10794 10792 10792 10793 10794 10793 10790 10789 10789 10785 10789 10788 10795
10677 10677 10677 10680 10683 10687 10693 10701 10711 10721 10731 10739 10747 10754 10761 10769 10773 10779 10784 10787 10789 10791 10792 10797 10791 10796 10790 10791 10788 10788 10787 10783 10783 10782 10781 10779 10778 10777 10778 10779 10778 10778 10777 10772 10773 10774 10782
10679 10679 10680 10682 10685 10690 10695 10702 10710 10718 10726 10733 10740 10747 10754 10760 10765 10771 10773 10777 10779 10781 10782 10782 10783 10781 10781 10778 10777 10774 10773 10770 10769 10768 10765 10765 10763 10763 10762 10763 10759 10762 10760 10758 10760 10759 10759